Time,TemperatureF,DewpointF,PressureIn,WindDirection,WindDirectionDegrees,WindSpeedMPH,WindSpeedGustMPH,Humidity,HourlyPrecipIn,Conditions,Clouds,dailyrainin,SoftwareType,DateUTC
2013-01-18 00:00:00,27.5,26.0,30.27,North,5,4.0,13.0,94,0.00,,,0.00,weatherlink.com 1.10,2013-01-18 05:00:00,
2013-01-18 00:16:00,27.0,26.0,30.29,NNE,14,6.0,14.0,94,0.00,,,0.00,weatherlink.com 1.10,2013-01-18 05:16:00,
2013-01-18 00:31:00,26.5,25.0,30.27,North,360,2.0,17.0,94,0.00,,,0.00,weatherlink.com 1.10,2013-01-18 05:31:00,
2013-01-18 00:46:00,26.0,25.0,30.29,West,271,8.0,15.0,94,0.00,,,0.00,weatherlink.com 1.10,2013-01-18 05:46:00,
2013-01-18 01:01:00,25.5,24.0,30.29,NNE,21,5.0,15.0,94,0.00,,,0.00,weatherlink.com 1.10,2013-01-18 06:01:00,
2013-01-18 01:16:00,25.2,24.0,30.30,NNE,17,3.0,20.0,94,0.00,,,0.00,weatherlink.com 1.10,2013-01-18 06:16:00,
2013-01-18 01:31:00,24.9,23.0,30.31,NNW,338,3.0,16.0,93,0.00,,,0.00,weatherlink.com 1.10,2013-01-18 06:31:00,
2013-01-18 01:47:00,24.6,23.0,30.32,NW,309,10.0,15.0,94,0.00,,,0.00,weatherlink.com 1.10,2013-01-18 06:47:00,
2013-01-18 02:02:00,24.5,23.0,30.33,NNW,331,5.0,15.0,94,0.00,,,0.00,weatherlink.com 1.10,2013-01-18 07:02:00,
2013-01-18 02:17:00,24.5,23.0,30.34,NNE,25,10.0,14.0,94,0.00,,,0.00,weatherlink.com 1.10,2013-01-18 07:17:00,
2013-01-18 02:32:00,24.5,23.0,30.34,NNW,346,3.0,18.0,94,0.00,,,0.00,weatherlink.com 1.10,2013-01-18 07:32:00,
2013-01-18 02:47:00,24.6,23.0,30.34,North,351,6.0,16.0,94,0.00,,,0.00,weatherlink.com 1.10,2013-01-18 07:47:00,
2013-01-18 03:02:00,24.4,23.0,30.34,NW,325,5.0,14.0,94,0.00,,,0.00,weatherlink.com 1.10,2013-01-18 08:02:00,
2013-01-18 03:17:00,24.2,23.0,30.34,NNE,22,6.0,15.0,93,0.00,,,0.00,weatherlink.com 1.10,2013-01-18 08:17:00,
2013-01-18 03:32:00,24.0,22.0,30.34,NNW,336,6.0,13.0,93,0.00,,,0.00,weatherlink.com 1.10,2013-01-18 08:32:00,
2013-01-18 03:47:00,23.8,22.0,30.34,NW,304,11.0,16.0,93,0.00,,,0.00,weatherlink.com 1.10,2013-01-18 08:47:00,
2013-01-18 04:02:00,23.7,22.0,30.33,NE,53,9.0,20.0,93,0.00,,,0.00,weatherlink.com 1.10,2013-01-18 09:02:00,
2013-01-18 04:17:00,23.6,22.0,30.34,NW,319,4.0,16.0,93,0.00,,,0.00,weatherlink.com 1.10,2013-01-18 09:17:00,
2013-01-18 04:32:00,23.4,22.0,30.34,NW,321,5.0,17.0,93,0.00,,,0.00,weatherlink.com 1.10,2013-01-18 09:32:00,
2013-01-18 04:47:00,23.2,22.0,30.35,North,360,5.0,13.0,93,0.00,,,0.00,weatherlink.com 1.10,2013-01-18 09:47:00,
2013-01-18 05:17:00,22.9,21.0,30.35,North,5,4.0,20.0,92,0.00,,,0.00,weatherlink.com 1.10,2013-01-18 10:17:00,
2013-01-18 05:32:00,22.8,21.0,30.36,NNW,343,5.0,17.0,92,0.00,,,0.00,weatherlink.com 1.10,2013-01-18 10:32:00,
2013-01-18 05:47:00,22.7,21.0,30.35,NW,313,6.0,16.0,92,0.00,,,0.00,weatherlink.com 1.10,2013-01-18 10:47:00,
2013-01-18 06:02:00,22.7,21.0,30.35,North,5,10.0,15.0,92,0.00,,,0.00,weatherlink.com 1.10,2013-01-18 11:02:00,
2013-01-18 06:17:00,22.7,21.0,30.35,North,351,6.0,15.0,92,0.00,,,0.00,weatherlink.com 1.10,2013-01-18 11:17:00,
2013-01-18 06:32:00,22.5,21.0,30.36,NNW,344,6.0,14.0,92,0.00,,,0.00,weatherlink.com 1.10,2013-01-18 11:32:00,
2013-01-18 06:47:00,22.5,21.0,30.39,North,360,4.0,16.0,92,0.00,,,0.00,weatherlink.com 1.10,2013-01-18 11:47:00,
2013-01-18 07:02:00,22.4,21.0,30.40,NNW,347,8.0,14.0,92,0.00,,,0.00,weatherlink.com 1.10,2013-01-18 12:02:00,
2013-01-18 07:17:00,22.2,20.0,30.42,North,355,7.0,12.0,91,0.00,,,0.00,weatherlink.com 1.10,2013-01-18 12:17:00,
2013-01-18 07:32:00,22.2,20.0,30.42,NNW,327,5.0,14.0,91,0.00,,,0.00,weatherlink.com 1.10,2013-01-18 12:32:00,
2013-01-18 07:47:00,22.5,20.0,30.43,North,5,7.0,13.0,91,0.00,,,0.00,weatherlink.com 1.10,2013-01-18 12:47:00,
2013-01-18 08:02:00,23.3,21.0,30.43,NNE,17,6.0,17.0,90,0.00,,,0.00,weatherlink.com 1.10,2013-01-18 13:02:00,
2013-01-18 08:17:00,23.9,21.0,30.45,NNW,336,6.0,17.0,89,0.00,,,0.00,weatherlink.com 1.10,2013-01-18 13:17:00,
2013-01-18 08:32:00,24.2,21.0,30.46,NNE,17,9.0,24.0,88,0.00,,,0.00,weatherlink.com 1.10,2013-01-18 13:32:00,
2013-01-18 08:47:00,24.6,22.0,30.48,North,5,7.0,17.0,88,0.00,,,0.00,weatherlink.com 1.10,2013-01-18 13:47:00,
2013-01-18 09:02:00,25.0,22.0,30.51,NW,321,11.0,19.0,89,0.00,,,0.00,weatherlink.com 1.10,2013-01-18 14:02:00,
2013-01-18 09:17:00,25.4,22.0,30.53,NNW,329,11.0,14.0,88,0.00,,,0.00,weatherlink.com 1.10,2013-01-18 14:17:00,
2013-01-18 09:33:00,26.0,23.0,30.55,North,355,5.0,16.0,89,0.00,,,0.00,weatherlink.com 1.10,2013-01-18 14:33:00,
2013-01-18 09:48:00,26.5,24.0,30.56,North,355,6.0,13.0,89,0.00,,,0.00,weatherlink.com 1.10,2013-01-18 14:48:00,
2013-01-18 10:03:00,27.1,24.0,30.58,North,350,6.0,11.0,89,0.00,,,0.00,weatherlink.com 1.10,2013-01-18 15:03:00,
2013-01-18 10:18:00,27.7,25.0,30.60,North,5,5.0,9.0,89,0.00,,,0.00,weatherlink.com 1.10,2013-01-18 15:18:00,
2013-01-18 10:33:00,28.7,26.0,30.61,NNW,336,5.0,10.0,88,0.00,,,0.00,weatherlink.com 1.10,2013-01-18 15:33:00,
2013-01-18 10:48:00,29.2,26.0,30.59,North,355,5.0,14.0,86,0.00,,,0.00,weatherlink.com 1.10,2013-01-18 15:48:00,
2013-01-18 11:03:00,29.5,26.0,30.59,North,355,8.0,14.0,87,0.00,,,0.00,weatherlink.com 1.10,2013-01-18 16:03:00,
2013-01-18 11:18:00,29.9,27.0,30.59,North,355,10.0,19.0,87,0.01,,,0.01,weatherlink.com 1.10,2013-01-18 16:18:00,
2013-01-18 11:33:00,30.1,26.0,30.60,NW,323,11.0,15.0,86,0.02,,,0.02,weatherlink.com 1.10,2013-01-18 16:33:00,
2013-01-18 11:48:00,30.7,26.0,30.61,North,11,6.0,9.0,84,0.04,,,0.04,weatherlink.com 1.10,2013-01-18 16:48:00,
2013-01-18 12:03:00,31.4,27.0,30.61,WNW,296,5.0,8.0,82,0.06,,,0.06,weatherlink.com 1.10,2013-01-18 17:03:00,
2013-01-18 12:18:00,31.9,26.0,30.61,NNW,331,4.0,11.0,80,0.07,,,0.08,weatherlink.com 1.10,2013-01-18 17:18:00,
2013-01-18 12:33:00,32.6,27.0,30.61,NNE,15,4.0,16.0,80,0.08,,,0.10,weatherlink.com 1.10,2013-01-18 17:33:00,
2013-01-18 12:48:00,33.2,27.0,30.61,NNE,30,4.0,10.0,78,0.08,,,0.12,weatherlink.com 1.10,2013-01-18 17:48:00,
2013-01-18 13:03:00,33.7,27.0,30.61,NNW,345,2.0,9.0,75,0.09,,,0.15,weatherlink.com 1.10,2013-01-18 18:03:00,
2013-01-18 13:18:00,34.3,28.0,30.62,North,5,5.0,7.0,78,0.10,,,0.18,weatherlink.com 1.10,2013-01-18 18:18:00,
2013-01-18 13:33:00,34.8,28.0,30.62,NNE,19,2.0,7.0,75,0.11,,,0.21,weatherlink.com 1.10,2013-01-18 18:33:00,
2013-01-18 13:49:00,35.3,29.0,30.62,North,5,2.0,4.0,79,0.11,,,0.24,weatherlink.com 1.10,2013-01-18 18:49:00,
2013-01-18 14:04:00,36.2,28.0,30.63,North,5,4.0,7.0,72,0.12,,,0.27,weatherlink.com 1.10,2013-01-18 19:04:00,
2013-01-18 14:18:00,36.9,30.0,30.63,North,360,4.0,6.0,76,0.12,,,0.30,weatherlink.com 1.10,2013-01-18 19:18:00,
2013-01-18 14:33:00,37.3,32.0,30.63,North,360,4.0,7.0,80,0.11,,,0.32,weatherlink.com 1.10,2013-01-18 19:33:00,
2013-01-18 14:48:00,37.4,29.0,30.63,North,355,4.0,8.0,73,0.10,,,0.34,weatherlink.com 1.10,2013-01-18 19:48:00,
2013-01-18 15:03:00,37.1,31.0,30.63,North,360,4.0,7.0,77,0.09,,,0.36,weatherlink.com 1.10,2013-01-18 20:03:00,
2013-01-18 15:18:00,37.0,31.0,30.64,NNE,22,7.0,8.0,78,0.08,,,0.38,weatherlink.com 1.10,2013-01-18 20:18:00,
2013-01-18 15:33:00,36.6,28.0,30.64,NNE,28,5.0,7.0,72,0.07,,,0.39,weatherlink.com 1.10,2013-01-18 20:33:00,
2013-01-18 15:48:00,36.8,29.0,30.64,NNE,17,4.0,7.0,72,0.07,,,0.41,weatherlink.com 1.10,2013-01-18 20:48:00,
2013-01-18 16:03:00,36.6,30.0,30.64,NNE,14,2.0,6.0,76,0.05,,,0.41,weatherlink.com 1.10,2013-01-18 21:03:00,
2013-01-18 16:19:00,36.6,30.0,30.65,NNE,15,4.0,5.0,76,0.05,,,0.43,weatherlink.com 1.10,2013-01-18 21:19:00,
2013-01-18 16:34:00,36.3,30.0,30.65,North,5,4.0,6.0,77,0.04,,,0.43,weatherlink.com 1.10,2013-01-18 21:34:00,
2013-01-18 16:49:00,35.2,29.0,30.66,NNE,13,4.0,6.0,78,0.03,,,0.44,weatherlink.com 1.10,2013-01-18 21:49:00,
2013-01-18 17:04:00,34.4,28.0,30.66,NNW,347,6.0,6.0,77,0.02,,,0.44,weatherlink.com 1.10,2013-01-18 22:04:00,
2013-01-18 17:18:00,32.2,26.0,30.66,North,355,3.0,6.0,79,0.01,,,0.44,weatherlink.com 1.10,2013-01-18 22:18:00,
2013-01-18 17:33:00,30.5,26.0,30.67,North,351,4.0,5.0,82,0.01,,,0.44,weatherlink.com 1.10,2013-01-18 22:33:00,
2013-01-18 17:48:00,29.8,26.0,30.67,North,360,3.0,4.0,84,0.00,,,0.44,weatherlink.com 1.10,2013-01-18 22:48:00,
2013-01-18 18:04:00,29.3,24.0,30.68,North,350,3.0,3.0,82,0.00,,,0.44,weatherlink.com 1.10,2013-01-18 23:04:00,
2013-01-18 18:19:00,29.3,24.0,30.68,North,350,3.0,4.0,82,0.00,,,0.44,weatherlink.com 1.10,2013-01-18 23:19:00,
2013-01-18 18:34:00,29.5,24.0,30.68,North,350,4.0,4.0,80,0.00,,,0.44,weatherlink.com 1.10,2013-01-18 23:34:00,
2013-01-18 18:49:00,29.7,24.0,30.68,North,360,0.0,2.0,78,0.00,,,0.44,weatherlink.com 1.10,2013-01-18 23:49:00,
2013-01-18 19:04:00,29.5,23.0,30.68,North,5,1.0,1.0,77,0.00,,,0.44,weatherlink.com 1.10,2013-01-19 00:04:00,
2013-01-18 19:19:00,30.3,25.0,30.68,South,171,2.0,5.0,80,0.00,,,0.44,weatherlink.com 1.10,2013-01-19 00:19:00,
2013-01-18 19:34:00,30.9,25.0,30.68,SE,142,1.0,4.0,80,0.00,,,0.44,weatherlink.com 1.10,2013-01-19 00:34:00,
2013-01-18 19:49:00,30.5,26.0,30.68,SSE,161,3.0,4.0,83,0.00,,,0.44,weatherlink.com 1.10,2013-01-19 00:49:00,
2013-01-18 20:05:00,30.4,26.0,30.68,SSE,160,2.0,5.0,83,0.00,,,0.44,weatherlink.com 1.10,2013-01-19 01:05:00,
2013-01-18 20:19:00,30.2,26.0,30.68,SSE,163,3.0,6.0,84,0.00,,,0.44,weatherlink.com 1.10,2013-01-19 01:19:00,
2013-01-18 20:34:00,30.5,26.0,30.67,SSE,166,2.0,5.0,83,0.00,,,0.44,weatherlink.com 1.10,2013-01-19 01:34:00,
2013-01-18 20:49:00,30.3,26.0,30.67,SSE,155,4.0,8.0,83,0.00,,,0.44,weatherlink.com 1.10,2013-01-19 01:49:00,
2013-01-18 21:05:00,30.1,26.0,30.67,SSE,162,2.0,5.0,84,0.00,,,0.44,weatherlink.com 1.10,2013-01-19 02:05:00,
2013-01-18 21:19:00,30.7,26.0,30.67,South,173,3.0,7.0,81,0.00,,,0.44,weatherlink.com 1.10,2013-01-19 02:19:00,
2013-01-18 21:34:00,30.3,26.0,30.67,SSE,153,4.0,7.0,83,0.00,,,0.44,weatherlink.com 1.10,2013-01-19 02:34:00,
2013-01-18 21:49:00,30.2,26.0,30.67,South,178,6.0,8.0,83,0.00,,,0.44,weatherlink.com 1.10,2013-01-19 02:49:00,
2013-01-18 22:05:00,30.5,25.0,30.67,SSE,150,4.0,7.0,81,0.00,,,0.44,weatherlink.com 1.10,2013-01-19 03:05:00,
2013-01-18 22:19:00,30.4,25.0,30.67,SE,131,4.0,9.0,80,0.00,,,0.44,weatherlink.com 1.10,2013-01-19 03:19:00,
2013-01-18 22:34:00,30.5,25.0,30.66,SSE,150,4.0,8.0,79,0.00,,,0.44,weatherlink.com 1.10,2013-01-19 03:34:00,
2013-01-18 22:49:00,30.4,25.0,30.66,SE,144,7.0,9.0,79,0.00,,,0.44,weatherlink.com 1.10,2013-01-19 03:49:00,
2013-01-18 23:05:00,30.6,24.0,30.66,SE,129,4.0,8.0,77,0.00,,,0.44,weatherlink.com 1.10,2013-01-19 04:05:00,
2013-01-18 23:19:00,30.2,24.0,30.66,South,173,3.0,6.0,78,0.00,,,0.44,weatherlink.com 1.10,2013-01-19 04:19:00,
2013-01-18 23:34:00,29.6,24.0,30.65,SE,142,2.0,7.0,81,0.00,,,0.44,weatherlink.com 1.10,2013-01-19 04:34:00,
2013-01-18 23:49:00,29.2,24.0,30.65,SE,146,9.0,9.0,81,0.00,,,0.44,weatherlink.com 1.10,2013-01-19 04:49:00,